Deer Park, WA

2:36 PM PST on November 19, 2017 (GMT -0800)
Deer Park

Weather History for KDEW - February, 2014

Change the Weather History Date:

Tuesday, February 11, 2014

  Actual Average Record
Temperature  
Mean Temperature 30 °F 30 °F  
Max Temperature 34 °F 38 °F 50 °F (2005)
Min Temperature 25 °F 21 °F 3 °F (1999)
Degree Days  
Heating Degree Days 35 35  
Month to date heating degree days 543 393  
Since 1 July heating degree days 4874 4789  
Cooling Degree Days 0 0  
Month to date cooling degree days 0 0  
Year to date cooling degree days 0 0  
Moisture  
Dew Point 26 °F    
Average Humidity 88    
Maximum Humidity 100    
Minimum Humidity 75    
Precipitation  
Precipitation 0.19 in 0.06 in 0.27 in (2007)
Month to date precipitation 0.46 0.73  
Year to date precipitation 2.14 3.36  
Sea Level Pressure  
Sea Level Pressure 30.04 in    
Wind  
Wind Speed 4 mph (SSE)    
Max Wind Speed 13 mph    
Max Gust Speed 14 mph    
Visibility 6 miles    
Events Fog , Rain , Snow    
T = Trace of Precipitation, MM = Missing Value Source: NWS Daily Summary

Daily Weather History Graph

Daily Weather History Graph

Search for Another Location

Airport or City:

Trip Planner

Search our weather history database for the weather conditions in past years. The results will help you decide how hot, cold, wet, or windy it might be!

Date:

Astronomy

Feb. 11, 2014 Rise Set
Actual Time 7:02 AM PST 5:06 PM PST
Civil Twilight 6:30 AM PST 5:38 PM PST
Nautical Twilight 5:53 AM PST 6:14 PM PST
Astronomical Twilight 5:17 AM PST 6:50 PM PST
Moon 2:25 PM PST (2/11) 4:49 AM PST (2/11)
Length of Visible Light 11h 08m
Length of Day
10h 03m
Waxing Gibbous, 91% of the Moon is Illuminated
Feb 11
Waxing Gibbous
Feb 14
Full
Feb 22
Last Quarter
Mar 1
New
Mar 8
First Quarter

Hourly Weather History & Observations

Time (PST) Temp. Windchill Dew Point Humidity Pressure Visibility Wind Dir Wind Speed Gust Speed Precip Events Conditions
12:53 AM 26.1 °F 20.5 °F 24.1 °F 92% 30.07 in 0.5 mi SSW 4.6 mph - N/A Fog Light Freezing Fog
1:53 AM 26.1 °F 20.5 °F 24.1 °F 92% 30.05 in 1.0 mi South 4.6 mph - N/A   Mist
2:53 AM 26.1 °F - 24.1 °F 92% 30.03 in 1.2 mi Calm Calm - N/A   Overcast
3:05 AM 26.1 °F - 24.1 °F 92% 29.95 in 0.8 mi Calm Calm - N/A   Mist
3:53 AM 26.1 °F - 25.0 °F 96% 30.04 in 0.8 mi Calm Calm - N/A   Mist
4:53 AM 27.0 °F 18.7 °F 25.0 °F 92% 30.05 in 0.5 mi South 8.1 mph - N/A Fog Light Freezing Fog
5:04 AM 27.0 °F 16.7 °F 25.0 °F 92% 29.98 in 2.0 mi SSW 11.5 mph - N/A   Overcast
5:14 AM 27.0 °F 17.3 °F 25.0 °F 92% 29.97 in 4.0 mi SSW 10.4 mph - N/A   Overcast
5:53 AM 27.0 °F 23.0 °F 26.1 °F 96% 30.06 in 5.0 mi SSW 3.5 mph - N/A   Overcast
6:08 AM 27.0 °F 20.5 °F 25.0 °F 92% 29.98 in 5.0 mi South 5.8 mph - N/A   Overcast
6:53 AM 26.1 °F 19.4 °F 24.1 °F 92% 30.08 in 6.0 mi SSE 5.8 mph - N/A   Overcast
7:23 AM 26.1 °F - 24.1 °F 92% 30.01 in 4.0 mi North - - N/A   Overcast
7:53 AM 26.1 °F 15.6 °F 24.1 °F 92% 30.10 in 5.0 mi South 11.5 mph - N/A   Overcast
8:53 AM 27.0 °F 18.7 °F 24.1 °F 89% 30.12 in 7.0 mi South 8.1 mph - N/A   Overcast
9:24 AM 27.0 °F 20.5 °F 25.0 °F 92% 30.04 in 8.0 mi SW 5.8 mph - N/A   Overcast
9:53 AM 28.0 °F 22.8 °F 25.0 °F 88% 30.13 in 6.0 mi South 4.6 mph - N/A   Overcast
10:02 AM 28.0 °F 24.2 °F 25.0 °F 88% 30.06 in 6.0 mi Variable 3.5 mph - N/A   Overcast
10:31 AM 27.0 °F 20.5 °F 25.0 °F 92% 30.08 in 9.0 mi South 5.8 mph - N/A   Overcast
10:53 AM 27.0 °F 21.6 °F 25.0 °F 92% 30.17 in 10.0 mi South 4.6 mph - N/A   Overcast
11:50 AM 28.4 °F 22.2 °F 24.8 °F 86% 30.11 in 10.0 mi SW 5.8 mph - N/A   Overcast
11:53 AM 28.0 °F 21.7 °F 25.0 °F 88% 30.19 in 10.0 mi WSW 5.8 mph - N/A   Overcast
12:53 PM 28.9 °F - 26.1 °F 89% 30.17 in 10.0 mi Calm Calm - N/A   Overcast
1:13 PM 30.0 °F - 26.1 °F 85% 30.10 in 10.0 mi Calm Calm - N/A   Overcast
1:53 PM 32.0 °F - 26.1 °F 79% 30.17 in 10.0 mi Calm Calm - N/A   Scattered Clouds
2:53 PM 33.1 °F - 26.1 °F 75% 30.16 in 10.0 mi Calm Calm - N/A   Clear
3:53 PM 32.0 °F 28.7 °F 27.0 °F 82% 30.17 in 10.0 mi North 3.5 mph - N/A   Clear
4:53 PM 28.0 °F 24.2 °F 25.0 °F 88% 30.15 in 10.0 mi NE 3.5 mph - N/A   Scattered Clouds
5:53 PM 28.0 °F - 25.0 °F 88% 30.12 in 10.0 mi Calm Calm - N/A   Clear
6:53 PM 30.0 °F 25.2 °F 27.0 °F 88% 30.10 in 10.0 mi NE 4.6 mph - N/A   Overcast
7:08 PM 30.0 °F 25.2 °F 27.0 °F 88% 30.02 in 10.0 mi NE 4.6 mph - N/A   Overcast
7:53 PM 30.0 °F 24.1 °F 27.0 °F 88% 30.08 in 10.0 mi North 5.8 mph - N/A   Overcast
8:53 PM 30.9 °F 27.5 °F 28.0 °F 89% 30.02 in 2.5 mi North 3.5 mph - 0.01 in Snow Light Snow
9:29 PM 30.9 °F 26.2 °F 28.0 °F 89% 29.94 in 3.0 mi NNW 4.6 mph - 0.03 in Snow Light Snow
9:53 PM 30.9 °F 27.5 °F 28.9 °F 92% 30.00 in 3.0 mi NW 3.5 mph - 0.04 in Snow Light Snow
10:19 PM 30.9 °F 27.5 °F 28.9 °F 92% 29.91 in 1.8 mi ENE 3.5 mph - 0.02 in Snow Light Snow
10:33 PM 30.9 °F 25.2 °F 28.9 °F 92% 29.89 in 2.5 mi NE 5.8 mph - 0.03 in Snow Light Snow
10:40 PM 30.9 °F 25.2 °F 28.9 °F 92% 29.89 in 4.0 mi NE 5.8 mph - 0.04 in Snow Light Snow
10:53 PM 32.0 °F 28.7 °F 30.0 °F 92% 29.95 in 4.0 mi ENE 3.5 mph - 0.05 in Rain Light Freezing Rain
11:00 PM 32.0 °F 28.7 °F 30.0 °F 92% 29.88 in 3.0 mi ENE 3.5 mph - 0.00 in Rain Light Freezing Rain
11:05 PM 32.0 °F 28.7 °F 30.9 °F 96% 29.87 in 2.5 mi ENE 3.5 mph - 0.01 in Snow Light Snow
11:20 PM 32.0 °F - 30.9 °F 96% 29.87 in 3.0 mi Calm Calm - 0.04 in   Overcast
11:53 PM 33.1 °F - 32.0 °F 96% 29.90 in 5.0 mi Calm Calm - 0.08 in Rain Light Rain